Location: Unspecified
(0.0000°N, 0.0000°E)
Time: 02:26:17
(UTC+00:00)

AO-7 - Pass Details

Date: 10 December 2017
Orbit: 1440 x 1458 km, 101.7° (Epoch: 20 January)

Event Time Altitude Azimuth Distance (km) Brightness Sun altitude
Exits shadow 01:37:21 - 80° (E) 3,664 ? -55.8°
Reaches altitude 10° 01:37:58 10° 84° (E) 3,577 ? -55.7°
Maximum altitude 01:41:17 13° 108° (ESE) 3,355 ? -55.0°
Drops below altitude 10° 01:44:35 10° 132° (SE) 3,579 ? -54.4°
Sets 01:49:31 0° 157° (SSE) 4,557 ? -53.5°
